Location: Assche-ter-Heiden
(50.9174°N, 4.1574°E)
Time: 17:47:33
(UTC+00:00)

CENTAUR R/B - Pass Details

Date: 20 January 2020
Orbit: 766 x 1422 km, 63.5° (Epoch: 07 February)

Event Time Altitude Azimuth Distance (km) Brightness Sun altitude
Exits shadow 02:43:00 31° 33° (NNE) 2,051 4.4 -45.0°
Drops below altitude 10° 02:48:46 10° 74° (ENE) 3,386 5.9 -44.2°
Sets 02:52:11 0° 83° (E) 4,424 6.6 -43.7°
